User: anonymous   Login
Location: Unspecified
(0.0000°N, 0.0000°E)
Time: 18:04:55
(UTC+00:00)
Language:

STARLINK-34599 - Orbit

View from above orbital plane
View from above orbital plane
View from above satellite
View from above satellite

Ground track
Ground track

The orbit is defined by the following mean orbital elements,

1 64919U          26145.29677296 +.00000000 +00000-0 +35748-3 0 00008
2 64919  53.1616 349.7481 0001391 111.4959 248.6190 15.30210205    02
Epoch (UTC): 25 May 2026 07:07:21
Eccentricity: 0.0001391
inclination: 53.1616°
perigee height: 474 km
apogee height: 476 km
right ascension of ascending node: 349.7481°
argument of perigee: 111.4959°
revolutions per day: 15.30210205
mean anomaly at epoch: 248.6190°

The dashed part of the orbit path shows where the satellite is in the earth's shadow,  

DLR